Time,TemperatureF,DewpointF,PressureIn,WindDirection,WindDirectionDegrees,WindSpeedMPH,WindSpeedGustMPH,Humidity,HourlyPrecipIn,Conditions,Clouds,dailyrainin,SoftwareType,DateUTC
2013-02-18 00:02:00,28.0,18.0,29.99,South,173,11.0,20.0,67,-99.99,,,-99.99,,2013-02-18 06:02:00,
2013-02-18 00:11:00,29.0,19.0,29.98,SSE,166,11.0,18.0,67,-99.99,,,-99.99,,2013-02-18 06:11:00,
2013-02-18 00:21:00,29.0,19.0,29.98,SSE,166,11.0,18.0,67,-99.99,,,-99.99,,2013-02-18 06:21:00,
2013-02-18 00:32:00,29.0,19.0,29.96,South,171,8.0,18.0,67,-99.99,,,-99.99,,2013-02-18 06:32:00,
2013-02-18 00:42:00,28.0,18.0,29.95,SSE,152,13.0,22.0,67,-99.99,,,-99.99,,2013-02-18 06:42:00,
2013-02-18 00:51:00,28.0,18.0,29.95,SSE,152,13.0,22.0,67,-99.99,,,-99.99,,2013-02-18 06:51:00,
2013-02-18 01:01:00,29.0,20.0,29.94,SSE,149,8.0,16.0,68,-99.99,,,-99.99,,2013-02-18 07:01:00,
2013-02-18 01:11:00,29.0,20.0,29.94,SSE,149,8.0,16.0,68,-99.99,,,-99.99,,2013-02-18 07:11:00,
2013-02-18 01:21:00,28.0,18.0,29.93,SSE,162,10.0,16.0,67,-99.99,,,-99.99,,2013-02-18 07:21:00,
2013-02-18 01:32:00,29.0,20.0,29.92,SSE,160,9.0,20.0,68,-99.99,,,-99.99,,2013-02-18 07:32:00,
2013-02-18 01:42:00,29.0,20.0,29.92,SSE,160,9.0,20.0,68,-99.99,,,-99.99,,2013-02-18 07:42:00,
2013-02-18 01:51:00,29.0,20.0,29.92,SSE,160,9.0,20.0,68,-99.99,,,-99.99,,2013-02-18 07:51:00,
2013-02-18 02:01:00,29.0,20.0,29.91,SSE,158,11.0,18.0,68,-99.99,,,-99.99,,2013-02-18 08:01:00,
2013-02-18 02:11:00,29.0,20.0,29.91,SSE,158,11.0,18.0,68,-99.99,,,-99.99,,2013-02-18 08:11:00,
2013-02-18 02:21:00,29.0,20.0,29.91,SSE,158,11.0,18.0,68,-99.99,,,-99.99,,2013-02-18 08:21:00,
2013-02-18 02:32:00,29.0,20.0,29.89,SSE,159,6.0,14.0,68,-99.99,,,-99.99,,2013-02-18 08:32:00,
2013-02-18 02:42:00,29.0,20.0,29.89,SSE,159,6.0,14.0,68,-99.99,,,-99.99,,2013-02-18 08:42:00,
2013-02-18 02:52:00,29.0,20.0,29.88,SSE,162,6.0,13.0,69,-99.99,,,-99.99,,2013-02-18 08:52:00,
2013-02-18 03:02:00,29.0,20.0,29.88,SSE,152,8.0,13.0,70,-99.99,,,-99.99,,2013-02-18 09:02:00,
2013-02-18 03:11:00,29.0,20.0,29.88,SSE,152,8.0,13.0,70,-99.99,,,-99.99,,2013-02-18 09:11:00,
2013-02-18 03:22:00,28.0,20.0,29.87,SSE,160,7.0,17.0,70,-99.99,,,-99.99,,2013-02-18 09:22:00,
2013-02-18 03:32:00,28.0,20.0,29.86,SSE,161,10.0,16.0,71,-99.99,,,-99.99,,2013-02-18 09:32:00,
2013-02-18 03:42:00,28.0,20.0,29.86,SSE,161,10.0,16.0,71,-99.99,,,-99.99,,2013-02-18 09:42:00,
2013-02-18 03:51:00,28.0,20.0,29.85,South,176,6.0,14.0,71,-99.99,,,-99.99,,2013-02-18 09:51:00,
2013-02-18 04:01:00,28.0,20.0,29.85,SSE,166,7.0,17.0,72,-99.99,,,-99.99,,2013-02-18 10:01:00,
2013-02-18 04:11:00,28.0,20.0,29.85,SSE,166,7.0,17.0,72,-99.99,,,-99.99,,2013-02-18 10:11:00,
2013-02-18 04:21:00,28.0,20.0,29.84,South,188,8.0,14.0,72,-99.99,,,-99.99,,2013-02-18 10:21:00,
2013-02-18 04:31:00,29.0,21.0,29.84,South,177,7.0,17.0,72,-99.99,,,-99.99,,2013-02-18 10:31:00,
2013-02-18 04:42:00,29.0,21.0,29.84,South,177,7.0,17.0,72,-99.99,,,-99.99,,2013-02-18 10:42:00,
2013-02-18 04:52:00,29.0,21.0,29.84,South,177,7.0,17.0,72,-99.99,,,-99.99,,2013-02-18 10:52:00,
2013-02-18 05:01:00,29.0,21.0,29.83,South,185,6.0,14.0,73,-99.99,,,-99.99,,2013-02-18 11:01:00,
2013-02-18 05:11:00,29.0,21.0,29.83,South,185,6.0,14.0,73,-99.99,,,-99.99,,2013-02-18 11:11:00,
2013-02-18 05:22:00,29.0,21.0,29.82,South,185,7.0,17.0,73,-99.99,,,-99.99,,2013-02-18 11:22:00,
2013-02-18 05:32:00,29.0,22.0,29.82,South,182,9.0,14.0,74,-99.99,,,-99.99,,2013-02-18 11:32:00,
2013-02-18 05:42:00,29.0,22.0,29.82,South,182,9.0,14.0,74,-99.99,,,-99.99,,2013-02-18 11:42:00,
2013-02-18 05:52:00,29.0,22.0,29.81,South,179,8.0,13.0,74,-99.99,,,-99.99,,2013-02-18 11:52:00,
2013-02-18 06:02:00,29.0,22.0,29.80,South,187,11.0,16.0,74,-99.99,,,-99.99,,2013-02-18 12:02:00,
2013-02-18 06:11:00,29.0,22.0,29.80,South,187,11.0,16.0,74,-99.99,,,-99.99,,2013-02-18 12:11:00,
2013-02-18 06:22:00,30.0,23.0,29.81,SSE,155,4.0,12.0,74,-99.99,,,-99.99,,2013-02-18 12:22:00,
2013-02-18 06:32:00,30.0,23.0,29.80,South,176,5.0,14.0,74,-99.99,,,-99.99,,2013-02-18 12:32:00,
2013-02-18 06:42:00,30.0,23.0,29.80,South,176,5.0,14.0,74,-99.99,,,-99.99,,2013-02-18 12:42:00,
2013-02-18 06:52:00,29.0,22.0,29.79,South,182,6.0,11.0,74,-99.99,,,-99.99,,2013-02-18 12:52:00,
2013-02-18 07:02:00,29.0,22.0,29.79,South,170,4.0,11.0,75,-99.99,,,-99.99,,2013-02-18 13:02:00,
2013-02-18 07:12:00,29.0,22.0,29.79,South,170,4.0,11.0,75,-99.99,,,-99.99,,2013-02-18 13:12:00,
2013-02-18 07:22:00,29.0,22.0,29.78,SSE,165,7.0,13.0,76,-99.99,,,-99.99,,2013-02-18 13:22:00,
2013-02-18 07:32:00,29.0,22.0,29.79,South,185,6.0,10.0,76,-99.99,,,-99.99,,2013-02-18 13:32:00,
2013-02-18 07:42:00,29.0,22.0,29.79,South,185,6.0,10.0,76,-99.99,,,-99.99,,2013-02-18 13:42:00,
2013-02-18 07:52:00,29.0,22.0,29.80,SSW,198,5.0,10.0,76,-99.99,,,-99.99,,2013-02-18 13:52:00,
2013-02-18 08:02:00,29.0,22.0,29.79,South,180,3.0,8.0,76,-99.99,,,-99.99,,2013-02-18 14:02:00,
2013-02-18 08:11:00,29.0,22.0,29.79,South,180,3.0,8.0,76,-99.99,,,-99.99,,2013-02-18 14:11:00,
2013-02-18 08:22:00,30.0,23.0,29.79,SSE,157,1.0,4.0,75,-99.99,,,-99.99,,2013-02-18 14:22:00,
2013-02-18 08:33:00,30.0,23.0,29.79,SSE,157,0.0,4.0,75,-99.99,,,-99.99,,2013-02-18 14:33:00,
2013-02-18 08:42:00,30.0,23.0,29.79,SSE,157,0.0,4.0,75,-99.99,,,-99.99,,2013-02-18 14:42:00,
2013-02-18 08:53:00,31.0,24.0,29.78,SSE,157,3.0,10.0,74,-99.99,,,-99.99,,2013-02-18 14:53:00,
2013-02-18 09:02:00,32.0,24.0,29.78,South,188,4.0,9.0,73,-99.99,,,-99.99,,2013-02-18 15:02:00,
2013-02-18 09:11:00,32.0,24.0,29.78,South,188,4.0,9.0,73,-99.99,,,-99.99,,2013-02-18 15:11:00,
2013-02-18 09:22:00,33.0,25.0,29.77,South,185,4.0,11.0,72,-99.99,,,-99.99,,2013-02-18 15:22:00,
2013-02-18 09:32:00,34.0,26.0,29.77,South,174,3.0,10.0,71,-99.99,,,-99.99,,2013-02-18 15:32:00,
2013-02-18 09:42:00,34.0,26.0,29.77,South,174,3.0,10.0,71,-99.99,,,-99.99,,2013-02-18 15:42:00,
2013-02-18 09:52:00,35.0,26.0,29.77,South,180,4.0,10.0,70,-99.99,,,-99.99,,2013-02-18 15:52:00,
2013-02-18 10:02:00,36.0,26.0,29.78,SW,218,8.0,12.0,68,-99.99,,,-99.99,,2013-02-18 16:02:00,
2013-02-18 10:12:00,36.0,26.0,29.78,SW,218,8.0,12.0,68,-99.99,,,-99.99,,2013-02-18 16:12:00,
2013-02-18 10:22:00,37.0,27.0,29.76,South,179,9.0,14.0,67,-99.99,,,-99.99,,2013-02-18 16:22:00,
2013-02-18 10:32:00,38.0,28.0,29.76,SSW,192,10.0,15.0,66,-99.99,,,-99.99,,2013-02-18 16:32:00,
2013-02-18 10:42:00,38.0,28.0,29.76,SSW,192,10.0,15.0,66,-99.99,,,-99.99,,2013-02-18 16:42:00,
2013-02-18 10:52:00,40.0,29.0,29.75,SSW,196,8.0,13.0,64,-99.99,,,-99.99,,2013-02-18 16:52:00,
2013-02-18 11:03:00,41.0,29.0,29.75,SW,215,8.0,11.0,62,-99.99,,,-99.99,,2013-02-18 17:03:00,
2013-02-18 11:12:00,41.0,29.0,29.75,SW,215,8.0,11.0,62,-99.99,,,-99.99,,2013-02-18 17:12:00,
2013-02-18 11:22:00,42.0,30.0,29.76,SSW,204,8.0,10.0,61,-99.99,,,-99.99,,2013-02-18 17:22:00,
2013-02-18 11:32:00,42.0,29.0,29.75,SSW,196,10.0,15.0,60,-99.99,,,-99.99,,2013-02-18 17:32:00,
2013-02-18 11:42:00,42.0,29.0,29.75,SSW,196,10.0,15.0,60,-99.99,,,-99.99,,2013-02-18 17:42:00,
2013-02-18 11:52:00,41.0,29.0,29.75,SSW,212,5.0,12.0,61,-99.99,,,-99.99,,2013-02-18 17:52:00,
2013-02-18 12:02:00,43.0,30.0,29.74,South,187,6.0,12.0,60,-99.99,,,-99.99,,2013-02-18 18:02:00,
2013-02-18 12:12:00,43.0,30.0,29.74,South,187,6.0,12.0,60,-99.99,,,-99.99,,2013-02-18 18:12:00,
2013-02-18 12:22:00,43.0,30.0,29.74,South,187,6.0,12.0,60,-99.99,,,-99.99,,2013-02-18 18:22:00,
2013-02-18 12:32:00,43.0,30.0,29.73,SSW,193,6.0,11.0,59,-99.99,,,-99.99,,2013-02-18 18:32:00,
2013-02-18 12:43:00,43.0,30.0,29.73,SSW,193,6.0,11.0,59,-99.99,,,-99.99,,2013-02-18 18:43:00,
2013-02-18 12:53:00,44.0,30.0,29.73,SSW,200,7.0,12.0,57,-99.99,,,-99.99,,2013-02-18 18:53:00,
2013-02-18 13:02:00,45.0,31.0,29.73,SW,218,6.0,10.0,57,-99.99,,,-99.99,,2013-02-18 19:02:00,
2013-02-18 13:12:00,45.0,31.0,29.73,SW,218,6.0,10.0,57,-99.99,,,-99.99,,2013-02-18 19:12:00,
2013-02-18 13:22:00,45.0,31.0,29.73,SW,218,6.0,10.0,57,-99.99,,,-99.99,,2013-02-18 19:22:00,
2013-02-18 13:33:00,45.0,31.0,29.73,SW,218,6.0,10.0,57,-99.99,,,-99.99,,2013-02-18 19:33:00,
2013-02-18 13:53:00,46.0,31.0,29.72,West,270,2.0,9.0,55,-99.99,,,-99.99,,2013-02-18 19:53:00,
2013-02-18 14:02:00,46.0,31.0,29.72,West,270,1.0,5.0,55,-99.99,,,-99.99,,2013-02-18 20:02:00,
2013-02-18 14:12:00,46.0,31.0,29.72,West,270,1.0,5.0,55,-99.99,,,-99.99,,2013-02-18 20:12:00,
2013-02-18 14:22:00,44.0,29.0,29.73,West,270,2.0,4.0,56,-99.99,,,-99.99,,2013-02-18 20:22:00,
2013-02-18 14:33:00,44.0,29.0,29.73,West,270,2.0,4.0,56,-99.99,,,-99.99,,2013-02-18 20:33:00,
2013-02-18 14:42:00,44.0,29.0,29.73,West,270,2.0,4.0,56,-99.99,,,-99.99,,2013-02-18 20:42:00,
2013-02-18 14:52:00,42.0,30.0,29.74,West,269,3.0,6.0,61,-99.99,,,-99.99,,2013-02-18 20:52:00,
2013-02-18 15:03:00,40.0,29.0,29.74,West,270,3.0,8.0,64,-99.99,,,-99.99,,2013-02-18 21:03:00,
2013-02-18 15:12:00,40.0,29.0,29.74,West,270,3.0,8.0,64,-99.99,,,-99.99,,2013-02-18 21:12:00,
2013-02-18 15:22:00,39.0,29.0,29.75,WSW,256,5.0,10.0,67,-99.99,,,-99.99,,2013-02-18 21:22:00,
2013-02-18 15:32:00,38.0,30.0,29.75,West,281,4.0,9.0,72,-99.99,,,-99.99,,2013-02-18 21:32:00,
2013-02-18 15:42:00,38.0,30.0,29.75,West,281,4.0,9.0,72,-99.99,,,-99.99,,2013-02-18 21:42:00,
2013-02-18 15:52:00,38.0,30.0,29.75,West,281,4.0,9.0,72,-99.99,,,-99.99,,2013-02-18 21:52:00,
2013-02-18 16:02:00,36.0,29.0,29.75,WNW,287,6.0,14.0,77,-99.99,,,-99.99,,2013-02-18 22:02:00,
2013-02-18 16:12:00,36.0,29.0,29.75,WNW,287,6.0,14.0,77,-99.99,,,-99.99,,2013-02-18 22:12:00,
2013-02-18 16:22:00,36.0,29.0,29.75,WNW,287,6.0,14.0,77,-99.99,,,-99.99,,2013-02-18 22:22:00,
2013-02-18 16:33:00,33.0,27.0,29.76,WNW,292,8.0,15.0,79,-99.99,,,-99.99,,2013-02-18 22:33:00,
2013-02-18 16:43:00,33.0,27.0,29.76,WNW,292,8.0,15.0,79,-99.99,,,-99.99,,2013-02-18 22:43:00,
2013-02-18 16:53:00,33.0,27.0,29.76,WNW,292,8.0,15.0,79,-99.99,,,-99.99,,2013-02-18 22:53:00,
2013-02-18 17:02:00,32.0,25.0,29.77,WNW,302,13.0,17.0,75,-99.99,,,-99.99,,2013-02-18 23:02:00,
2013-02-18 17:12:00,32.0,25.0,29.77,WNW,302,13.0,17.0,75,-99.99,,,-99.99,,2013-02-18 23:12:00,
2013-02-18 17:23:00,30.0,24.0,29.77,WNW,302,8.0,19.0,77,-99.99,,,-99.99,,2013-02-18 23:23:00,
2013-02-18 17:33:00,30.0,24.0,29.77,NW,310,9.0,21.0,77,-99.99,,,-99.99,,2013-02-18 23:33:00,
2013-02-18 17:42:00,30.0,24.0,29.77,NW,310,9.0,21.0,77,-99.99,,,-99.99,,2013-02-18 23:42:00,
2013-02-18 17:52:00,30.0,24.0,29.77,NW,310,9.0,21.0,77,-99.99,,,-99.99,,2013-02-18 23:52:00,
2013-02-18 18:03:00,28.0,22.0,29.79,West,262,4.0,9.0,77,-99.99,,,-99.99,,2013-02-19 00:03:00,
2013-02-18 18:12:00,28.0,22.0,29.79,West,262,4.0,9.0,77,-99.99,,,-99.99,,2013-02-19 00:12:00,
2013-02-18 18:22:00,28.0,22.0,29.79,West,262,4.0,9.0,77,-99.99,,,-99.99,,2013-02-19 00:22:00,
2013-02-18 18:34:00,27.0,19.0,29.81,NW,309,10.0,20.0,72,-99.99,,,-99.99,,2013-02-19 00:34:00,
2013-02-18 18:44:00,27.0,19.0,29.81,NW,309,10.0,20.0,72,-99.99,,,-99.99,,2013-02-19 00:44:00,
2013-02-18 18:54:00,27.0,19.0,29.81,NW,309,10.0,20.0,72,-99.99,,,-99.99,,2013-02-19 00:54:00,
2013-02-18 19:03:00,25.0,17.0,29.83,WNW,288,7.0,16.0,72,-99.99,,,-99.99,,2013-02-19 01:03:00,
2013-02-18 19:14:00,25.0,17.0,29.83,WNW,288,7.0,16.0,72,-99.99,,,-99.99,,2013-02-19 01:14:00,
2013-02-18 19:24:00,24.0,16.0,29.83,West,281,7.0,14.0,71,-99.99,,,-99.99,,2013-02-19 01:24:00,
2013-02-18 19:34:00,23.0,15.0,29.83,WNW,290,6.0,21.0,72,-99.99,,,-99.99,,2013-02-19 01:34:00,
2013-02-18 19:43:00,23.0,15.0,29.83,WNW,290,6.0,21.0,72,-99.99,,,-99.99,,2013-02-19 01:43:00,
2013-02-18 19:53:00,23.0,15.0,29.83,WNW,290,6.0,21.0,72,-99.99,,,-99.99,,2013-02-19 01:53:00,
2013-02-18 20:03:00,22.0,14.0,29.83,WNW,295,7.0,14.0,72,-99.99,,,-99.99,,2013-02-19 02:03:00,
2013-02-18 20:14:00,22.0,14.0,29.83,WNW,295,7.0,14.0,72,-99.99,,,-99.99,,2013-02-19 02:14:00,
2013-02-18 20:23:00,22.0,14.0,29.83,WNW,295,7.0,14.0,72,-99.99,,,-99.99,,2013-02-19 02:23:00,
2013-02-18 20:34:00,21.0,13.0,29.83,NW,324,12.0,23.0,72,-99.99,,,-99.99,,2013-02-19 02:34:00,
2013-02-18 20:44:00,21.0,13.0,29.83,NW,324,12.0,23.0,72,-99.99,,,-99.99,,2013-02-19 02:44:00,
2013-02-18 20:55:00,21.0,13.0,29.83,WNW,300,12.0,19.0,71,-99.99,,,-99.99,,2013-02-19 02:55:00,
2013-02-18 21:06:00,20.0,12.0,29.83,NW,307,11.0,21.0,72,-99.99,,,-99.99,,2013-02-19 03:06:00,
2013-02-18 21:14:00,20.0,12.0,29.84,NW,315,11.0,20.0,72,-99.99,,,-99.99,,2013-02-19 03:14:00,
2013-02-18 21:23:00,20.0,12.0,29.84,NW,315,11.0,20.0,72,-99.99,,,-99.99,,2013-02-19 03:23:00,
2013-02-18 21:34:00,19.0,11.0,29.84,NW,321,11.0,18.0,72,-99.99,,,-99.99,,2013-02-19 03:34:00,
2013-02-18 21:44:00,19.0,11.0,29.84,NW,321,11.0,18.0,72,-99.99,,,-99.99,,2013-02-19 03:44:00,
2013-02-18 21:53:00,19.0,11.0,29.84,NW,321,11.0,18.0,72,-99.99,,,-99.99,,2013-02-19 03:53:00,
2013-02-18 22:02:00,18.0,11.0,29.84,WNW,300,7.0,23.0,73,-99.99,,,-99.99,,2013-02-19 04:02:00,
2013-02-18 22:14:00,18.0,11.0,29.84,WNW,300,7.0,23.0,73,-99.99,,,-99.99,,2013-02-19 04:14:00,
2013-02-18 22:23:00,18.0,11.0,29.85,NW,315,12.0,18.0,73,-99.99,,,-99.99,,2013-02-19 04:23:00,
2013-02-18 22:33:00,18.0,11.0,29.85,WNW,296,7.0,15.0,73,-99.99,,,-99.99,,2013-02-19 04:33:00,
2013-02-18 22:43:00,18.0,11.0,29.85,WNW,296,7.0,15.0,73,-99.99,,,-99.99,,2013-02-19 04:43:00,
2013-02-18 22:52:00,17.0,10.0,29.86,NW,320,13.0,21.0,74,-99.99,,,-99.99,,2013-02-19 04:52:00,
2013-02-18 23:02:00,17.0,10.0,29.86,WNW,293,9.0,19.0,73,-99.99,,,-99.99,,2013-02-19 05:02:00,
2013-02-18 23:12:00,17.0,10.0,29.86,WNW,293,9.0,19.0,73,-99.99,,,-99.99,,2013-02-19 05:12:00,
2013-02-18 23:22:00,17.0,10.0,29.86,WNW,293,9.0,19.0,73,-99.99,,,-99.99,,2013-02-19 05:22:00,
2013-02-18 23:32:00,17.0,10.0,29.87,WNW,296,10.0,22.0,74,-99.99,,,-99.99,,2013-02-19 05:32:00,
2013-02-18 23:43:00,17.0,10.0,29.87,WNW,296,10.0,22.0,74,-99.99,,,-99.99,,2013-02-19 05:43:00,
2013-02-18 23:52:00,16.0,9.0,29.88,WNW,296,7.0,15.0,74,-99.99,,,-99.99,,2013-02-19 05:52:00,